Time,TemperatureF,DewpointF,PressureIn,WindDirection,WindDirectionDegrees,WindSpeedMPH,WindSpeedGustMPH,Humidity,HourlyPrecipIn,Conditions,Clouds,dailyrainin,SoftwareType,DateUTC
2013-06-02 00:01:00,42.0,34.0,-100.00,ESE,120,-999.0,1.0,74,-99.99,,,-99.99,,2013-06-02 06:01:00,
2013-06-02 00:12:00,42.0,34.0,-100.00,ESE,120,-999.0,3.0,76,-99.99,,,-99.99,,2013-06-02 06:12:00,
2013-06-02 00:21:00,41.0,34.0,-100.00,ESE,120,-999.0,2.0,77,-99.99,,,-99.99,,2013-06-02 06:21:00,
2013-06-02 00:32:00,41.0,34.0,-100.00,ESE,120,-999.0,2.0,77,-99.99,,,-99.99,,2013-06-02 06:32:00,
2013-06-02 00:42:00,41.0,34.0,-100.00,ESE,120,-999.0,2.0,77,-99.99,,,-99.99,,2013-06-02 06:42:00,
2013-06-02 00:52:00,41.0,34.0,-100.00,ESE,120,-999.0,2.0,77,-99.99,,,-99.99,,2013-06-02 06:52:00,
2013-06-02 01:01:00,41.0,34.0,-100.00,ESE,120,-999.0,2.0,77,-99.99,,,-99.99,,2013-06-02 07:01:00,
2013-06-02 01:11:00,41.0,34.0,-100.00,ESE,120,-999.0,2.0,77,-99.99,,,-99.99,,2013-06-02 07:11:00,
2013-06-02 01:21:00,41.0,34.0,-100.00,ESE,120,-999.0,-999.0,78,-99.99,,,-99.99,,2013-06-02 07:21:00,
2013-06-02 01:32:00,41.0,34.0,-100.00,ESE,120,-999.0,-999.0,78,-99.99,,,-99.99,,2013-06-02 07:32:00,
2013-06-02 01:42:00,40.0,33.0,-100.00,ESE,120,-999.0,-999.0,78,-99.99,,,-99.99,,2013-06-02 07:42:00,
2013-06-02 01:52:00,39.0,33.0,-100.00,ESE,120,-999.0,-999.0,79,-99.99,,,-99.99,,2013-06-02 07:52:00,
2013-06-02 02:01:00,39.0,33.0,-100.00,ESE,120,-999.0,-999.0,79,-99.99,,,-99.99,,2013-06-02 08:01:00,
2013-06-02 02:11:00,40.0,33.0,-100.00,ESE,120,-999.0,-999.0,76,-99.99,,,-99.99,,2013-06-02 08:11:00,
2013-06-02 02:21:00,40.0,33.0,-100.00,ESE,120,-999.0,-999.0,76,-99.99,,,-99.99,,2013-06-02 08:21:00,
2013-06-02 02:31:00,40.0,33.0,-100.00,ESE,120,-999.0,-999.0,76,-99.99,,,-99.99,,2013-06-02 08:31:00,
2013-06-02 02:41:00,40.0,33.0,-100.00,ESE,120,-999.0,-999.0,76,-99.99,,,-99.99,,2013-06-02 08:41:00,
2013-06-02 02:52:00,39.0,33.0,-100.00,ESE,120,-999.0,-999.0,80,-99.99,,,-99.99,,2013-06-02 08:52:00,
2013-06-02 03:01:00,39.0,33.0,-100.00,ESE,120,-999.0,-999.0,80,-99.99,,,-99.99,,2013-06-02 09:01:00,
2013-06-02 03:11:00,38.0,33.0,-100.00,ESE,120,-999.0,-999.0,83,-99.99,,,-99.99,,2013-06-02 09:11:00,
2013-06-02 03:21:00,38.0,33.0,-100.00,ESE,120,-999.0,-999.0,83,-99.99,,,-99.99,,2013-06-02 09:21:00,
2013-06-02 03:33:00,38.0,33.0,-100.00,ESE,120,-999.0,-999.0,83,-99.99,,,-99.99,,2013-06-02 09:33:00,
2013-06-02 03:42:00,37.0,32.0,-100.00,ESE,120,-999.0,-999.0,83,-99.99,,,-99.99,,2013-06-02 09:42:00,
2013-06-02 03:53:00,37.0,32.0,-100.00,ESE,120,-999.0,-999.0,83,-99.99,,,-99.99,,2013-06-02 09:53:00,
2013-06-02 04:02:00,37.0,32.0,-100.00,ESE,120,-999.0,-999.0,83,-99.99,,,-99.99,,2013-06-02 10:02:00,
2013-06-02 04:12:00,37.0,32.0,-100.00,ESE,120,-999.0,-999.0,85,-99.99,,,-99.99,,2013-06-02 10:12:00,
2013-06-02 04:22:00,36.0,32.0,-100.00,ESE,120,-999.0,-999.0,86,-99.99,,,-99.99,,2013-06-02 10:22:00,
2013-06-02 04:32:00,36.0,32.0,-100.00,ESE,120,-999.0,-999.0,86,-99.99,,,-99.99,,2013-06-02 10:32:00,
2013-06-02 04:42:00,36.0,32.0,-100.00,ESE,120,-999.0,-999.0,87,-99.99,,,-99.99,,2013-06-02 10:42:00,
2013-06-02 04:52:00,37.0,33.0,-100.00,ESE,120,-999.0,-999.0,86,-99.99,,,-99.99,,2013-06-02 10:52:00,
2013-06-02 05:02:00,37.0,33.0,-100.00,ESE,120,-999.0,-999.0,86,-99.99,,,-99.99,,2013-06-02 11:02:00,
2013-06-02 05:12:00,36.0,32.0,-100.00,ESE,120,-999.0,-999.0,87,-99.99,,,-99.99,,2013-06-02 11:12:00,
2013-06-02 05:21:00,36.0,32.0,-100.00,ESE,120,-999.0,-999.0,88,-99.99,,,-99.99,,2013-06-02 11:21:00,
2013-06-02 05:32:00,36.0,32.0,-100.00,ESE,120,-999.0,-999.0,88,-99.99,,,-99.99,,2013-06-02 11:32:00,
2013-06-02 05:42:00,36.0,32.0,-100.00,ESE,120,-999.0,-999.0,87,-99.99,,,-99.99,,2013-06-02 11:42:00,
2013-06-02 05:52:00,36.0,32.0,-100.00,ESE,120,-999.0,-999.0,87,-99.99,,,-99.99,,2013-06-02 11:52:00,
2013-06-02 06:01:00,36.0,32.0,-100.00,ESE,120,-999.0,-999.0,87,-99.99,,,-99.99,,2013-06-02 12:01:00,
2013-06-02 06:11:00,38.0,32.0,-100.00,ESE,120,-999.0,-999.0,80,-99.99,,,-99.99,,2013-06-02 12:11:00,
2013-06-02 06:21:00,41.0,33.0,-100.00,ESE,120,-999.0,-999.0,75,-99.99,,,-99.99,,2013-06-02 12:21:00,
2013-06-02 06:32:00,41.0,33.0,-100.00,ESE,120,-999.0,-999.0,75,-99.99,,,-99.99,,2013-06-02 12:32:00,
2013-06-02 06:42:00,44.0,35.0,-100.00,ESE,120,-999.0,3.0,72,-99.99,,,-99.99,,2013-06-02 12:42:00,
2013-06-02 06:52:00,46.0,37.0,-100.00,ESE,120,-999.0,3.0,71,-99.99,,,-99.99,,2013-06-02 12:52:00,
2013-06-02 07:01:00,46.0,37.0,-100.00,ESE,120,-999.0,3.0,71,-99.99,,,-99.99,,2013-06-02 13:01:00,
2013-06-02 07:11:00,49.0,33.0,-100.00,ESE,120,-999.0,3.0,62,-99.99,,,-99.99,,2013-06-02 13:11:00,
2013-06-02 07:21:00,50.0,36.0,-100.00,ESE,120,-999.0,3.0,60,-99.99,,,-99.99,,2013-06-02 13:21:00,
2013-06-02 07:32:00,50.0,36.0,-100.00,ESE,120,-999.0,3.0,60,-99.99,,,-99.99,,2013-06-02 13:32:00,
2013-06-02 07:42:00,51.0,37.0,-100.00,ESE,120,-999.0,-999.0,60,-99.99,,,-99.99,,2013-06-02 13:42:00,
2013-06-02 07:52:00,50.0,38.0,-100.00,ESE,120,-999.0,-999.0,62,-99.99,,,-99.99,,2013-06-02 13:52:00,
2013-06-02 08:02:00,50.0,38.0,-100.00,ESE,120,-999.0,-999.0,62,-99.99,,,-99.99,,2013-06-02 14:02:00,
2013-06-02 08:11:00,52.0,39.0,-100.00,ENE,74,0.0,6.0,62,-99.99,,,-99.99,,2013-06-02 14:11:00,
2013-06-02 08:21:00,54.0,37.0,-100.00,ENE,74,0.0,6.0,57,-99.99,,,-99.99,,2013-06-02 14:21:00,
2013-06-02 08:32:00,54.0,37.0,-100.00,ENE,74,0.0,6.0,57,-99.99,,,-99.99,,2013-06-02 14:32:00,
2013-06-02 08:42:00,55.0,40.0,-100.00,ENE,74,0.0,6.0,58,-99.99,,,-99.99,,2013-06-02 14:42:00,
2013-06-02 08:52:00,56.0,41.0,-100.00,ENE,74,0.0,5.0,57,-99.99,,,-99.99,,2013-06-02 14:52:00,
2013-06-02 09:01:00,56.0,41.0,-100.00,ENE,68,1.0,5.0,57,-99.99,,,-99.99,,2013-06-02 15:01:00,
2013-06-02 09:11:00,58.0,40.0,-100.00,ENE,68,1.0,4.0,51,-99.99,,,-99.99,,2013-06-02 15:11:00,
2013-06-02 09:21:00,60.0,42.0,-100.00,ENE,68,1.0,6.0,53,-99.99,,,-99.99,,2013-06-02 15:21:00,
2013-06-02 09:32:00,60.0,42.0,-100.00,ENE,68,1.0,6.0,53,-99.99,,,-99.99,,2013-06-02 15:32:00,
2013-06-02 09:43:00,61.0,40.0,-100.00,ENE,57,2.0,8.0,49,-99.99,,,-99.99,,2013-06-02 15:43:00,
2013-06-02 09:53:00,62.0,43.0,-100.00,ENE,57,2.0,10.0,51,-99.99,,,-99.99,,2013-06-02 15:53:00,
2013-06-02 10:03:00,62.0,43.0,-100.00,West,262,4.0,10.0,51,-99.99,,,-99.99,,2013-06-02 16:03:00,
2013-06-02 10:13:00,62.0,40.0,-100.00,South,171,6.0,18.0,45,-99.99,,,-99.99,,2013-06-02 16:13:00,
2013-06-02 10:23:00,64.0,33.0,-100.00,WSW,251,6.0,14.0,34,-99.99,,,-99.99,,2013-06-02 16:23:00,
2013-06-02 10:33:00,64.0,33.0,-100.00,SSW,199,7.0,14.0,34,-99.99,,,-99.99,,2013-06-02 16:33:00,
2013-06-02 10:42:00,66.0,38.0,-100.00,SSW,199,7.0,11.0,36,-99.99,,,-99.99,,2013-06-02 16:42:00,
2013-06-02 10:52:00,64.0,43.0,-100.00,East,97,3.0,11.0,47,-99.99,,,-99.99,,2013-06-02 16:52:00,
2013-06-02 11:02:00,64.0,43.0,-100.00,NE,46,7.0,11.0,47,-99.99,,,-99.99,,2013-06-02 17:02:00,
2013-06-02 11:12:00,63.0,45.0,-100.00,ENE,57,6.0,11.0,53,-99.99,,,-99.99,,2013-06-02 17:12:00,
2013-06-02 11:22:00,64.0,42.0,-100.00,ENE,57,6.0,10.0,44,-99.99,,,-99.99,,2013-06-02 17:22:00,
2013-06-02 11:32:00,64.0,42.0,-100.00,NE,40,5.0,10.0,44,-99.99,,,-99.99,,2013-06-02 17:32:00,
2013-06-02 11:42:00,64.0,42.0,-100.00,East,80,8.0,11.0,45,-99.99,,,-99.99,,2013-06-02 17:42:00,
2013-06-02 11:52:00,64.0,42.0,-100.00,ENE,63,7.0,11.0,45,-99.99,,,-99.99,,2013-06-02 17:52:00,
2013-06-02 12:01:00,64.0,42.0,-100.00,NE,46,8.0,11.0,45,-99.99,,,-99.99,,2013-06-02 18:01:00,
2013-06-02 12:11:00,64.0,41.0,-100.00,ENE,74,7.0,11.0,43,-99.99,,,-99.99,,2013-06-02 18:11:00,
2013-06-02 12:21:00,64.0,42.0,-100.00,ENE,63,6.0,12.0,45,-99.99,,,-99.99,,2013-06-02 18:21:00,
2013-06-02 12:32:00,64.0,42.0,-100.00,ENE,74,6.0,12.0,45,-99.99,,,-99.99,,2013-06-02 18:32:00,
2013-06-02 12:42:00,66.0,44.0,-100.00,ENE,74,6.0,11.0,45,-99.99,,,-99.99,,2013-06-02 18:42:00,
2013-06-02 12:52:00,65.0,43.0,-100.00,NE,51,5.0,13.0,46,-99.99,,,-99.99,,2013-06-02 18:52:00,
2013-06-02 13:01:00,65.0,43.0,-100.00,NE,51,9.0,13.0,46,-99.99,,,-99.99,,2013-06-02 19:01:00,
2013-06-02 13:11:00,65.0,42.0,-100.00,NE,46,7.0,11.0,43,-99.99,,,-99.99,,2013-06-02 19:11:00,
2013-06-02 13:21:00,66.0,43.0,-100.00,ENE,68,7.0,9.0,43,-99.99,,,-99.99,,2013-06-02 19:21:00,
2013-06-02 13:32:00,66.0,43.0,-100.00,ENE,68,7.0,9.0,43,-99.99,,,-99.99,,2013-06-02 19:32:00,
2013-06-02 13:42:00,67.0,43.0,-100.00,SE,125,4.0,9.0,42,-99.99,,,-99.99,,2013-06-02 19:42:00,
2013-06-02 13:52:00,67.0,43.0,-100.00,SE,125,4.0,10.0,42,-99.99,,,-99.99,,2013-06-02 19:52:00,
2013-06-02 14:02:00,67.0,43.0,-100.00,SSE,160,4.0,10.0,42,-99.99,,,-99.99,,2013-06-02 20:02:00,
2013-06-02 14:11:00,66.0,45.0,-100.00,SSE,160,4.0,8.0,47,-99.99,,,-99.99,,2013-06-02 20:11:00,
2013-06-02 14:21:00,67.0,45.0,-100.00,ENE,63,4.0,11.0,45,-99.99,,,-99.99,,2013-06-02 20:21:00,
2013-06-02 14:32:00,67.0,45.0,-100.00,ESE,120,5.0,11.0,45,-99.99,,,-99.99,,2013-06-02 20:32:00,
2013-06-02 14:42:00,67.0,46.0,-100.00,ESE,120,5.0,10.0,47,-99.99,,,-99.99,,2013-06-02 20:42:00,
2013-06-02 14:52:00,68.0,44.0,-100.00,East,85,5.0,14.0,42,-99.99,,,-99.99,,2013-06-02 20:52:00,
2013-06-02 15:01:00,68.0,44.0,-100.00,East,85,5.0,14.0,42,-99.99,,,-99.99,,2013-06-02 21:01:00,
2013-06-02 15:12:00,68.0,43.0,-100.00,SSE,165,4.0,9.0,41,-99.99,,,-99.99,,2013-06-02 21:12:00,
2013-06-02 15:21:00,70.0,46.0,-100.00,SSE,165,4.0,9.0,42,-99.99,,,-99.99,,2013-06-02 21:21:00,
2013-06-02 15:33:00,70.0,46.0,-100.00,SSE,165,4.0,9.0,42,-99.99,,,-99.99,,2013-06-02 21:33:00,
2013-06-02 15:42:00,69.0,43.0,-100.00,SE,131,4.0,11.0,40,-99.99,,,-99.99,,2013-06-02 21:42:00,
2013-06-02 15:53:00,69.0,42.0,-100.00,SE,131,4.0,11.0,38,-99.99,,,-99.99,,2013-06-02 21:53:00,
2013-06-02 16:03:00,69.0,42.0,-100.00,ESE,120,4.0,11.0,38,-99.99,,,-99.99,,2013-06-02 22:03:00,
2013-06-02 16:12:00,68.0,42.0,-100.00,ESE,120,4.0,11.0,39,-99.99,,,-99.99,,2013-06-02 22:12:00,
2013-06-02 16:23:00,68.0,43.0,-100.00,SE,137,4.0,9.0,40,-99.99,,,-99.99,,2013-06-02 22:23:00,
2013-06-02 16:33:00,68.0,43.0,-100.00,SE,137,4.0,9.0,40,-99.99,,,-99.99,,2013-06-02 22:33:00,
2013-06-02 16:42:00,68.0,41.0,-100.00,East,85,3.0,9.0,38,-99.99,,,-99.99,,2013-06-02 22:42:00,
2013-06-02 16:52:00,69.0,42.0,-100.00,East,85,3.0,9.0,38,-99.99,,,-99.99,,2013-06-02 22:52:00,
2013-06-02 17:02:00,69.0,42.0,-100.00,SSE,148,4.0,9.0,38,-99.99,,,-99.99,,2013-06-02 23:02:00,
2013-06-02 17:12:00,68.0,41.0,-100.00,SSE,148,4.0,9.0,38,-99.99,,,-99.99,,2013-06-02 23:12:00,
2013-06-02 17:22:00,68.0,42.0,-100.00,SSE,148,4.0,10.0,40,-99.99,,,-99.99,,2013-06-02 23:22:00,
2013-06-02 17:32:00,68.0,42.0,-100.00,ESE,120,3.0,10.0,40,-99.99,,,-99.99,,2013-06-02 23:32:00,
2013-06-02 17:42:00,68.0,41.0,-100.00,NNW,348,55.0,55.0,37,-99.99,,,-99.99,,2013-06-02 23:42:00,
2013-06-02 17:52:00,69.0,42.0,-100.00,NNW,348,55.0,55.0,38,-99.99,,,-99.99,,2013-06-02 23:52:00,
2013-06-02 18:01:00,69.0,42.0,-100.00,NNW,348,55.0,55.0,38,-99.99,,,-99.99,,2013-06-03 00:01:00,
2013-06-02 18:12:00,68.0,40.0,-100.00,SSE,148,56.0,56.0,36,-99.99,,,-99.99,,2013-06-03 00:12:00,
2013-06-02 18:21:00,67.0,40.0,-100.00,SSE,148,56.0,56.0,37,-99.99,,,-99.99,,2013-06-03 00:21:00,
2013-06-02 18:32:00,67.0,40.0,-100.00,SSE,148,56.0,56.0,37,-99.99,,,-99.99,,2013-06-03 00:32:00,
2013-06-02 18:42:00,67.0,40.0,-100.00,SSE,165,3.0,8.0,37,-99.99,,,-99.99,,2013-06-03 00:42:00,
2013-06-02 18:51:00,68.0,40.0,-100.00,SSE,165,3.0,9.0,36,-99.99,,,-99.99,,2013-06-03 00:51:00,
2013-06-02 19:01:00,68.0,40.0,-100.00,SSE,160,4.0,9.0,36,-99.99,,,-99.99,,2013-06-03 01:01:00,
2013-06-02 19:11:00,67.0,40.0,-100.00,SSE,160,4.0,9.0,38,-99.99,,,-99.99,,2013-06-03 01:11:00,
2013-06-02 19:21:00,67.0,40.0,-100.00,SSE,160,4.0,9.0,38,-99.99,,,-99.99,,2013-06-03 01:21:00,
2013-06-02 19:32:00,67.0,40.0,-100.00,SSE,160,4.0,9.0,38,-99.99,,,-99.99,,2013-06-03 01:32:00,
2013-06-02 19:42:00,67.0,39.0,-100.00,SSE,160,4.0,7.0,35,-99.99,,,-99.99,,2013-06-03 01:42:00,
2013-06-02 19:52:00,66.0,40.0,-100.00,SSE,160,4.0,5.0,39,-99.99,,,-99.99,,2013-06-03 01:52:00,
2013-06-02 20:02:00,66.0,40.0,-100.00,SSE,160,4.0,5.0,39,-99.99,,,-99.99,,2013-06-03 02:02:00,
2013-06-02 20:12:00,64.0,38.0,-100.00,SSE,160,4.0,5.0,38,-99.99,,,-99.99,,2013-06-03 02:12:00,
2013-06-02 20:22:00,62.0,36.0,-100.00,SSE,160,4.0,5.0,42,-99.99,,,-99.99,,2013-06-03 02:22:00,
2013-06-02 20:32:00,62.0,36.0,-100.00,SSE,160,4.0,5.0,42,-99.99,,,-99.99,,2013-06-03 02:32:00,
2013-06-02 20:42:00,61.0,37.0,-100.00,SSE,160,4.0,5.0,42,-99.99,,,-99.99,,2013-06-03 02:42:00,
2013-06-02 20:52:00,60.0,37.0,-100.00,SSE,160,4.0,-999.0,43,-99.99,,,-99.99,,2013-06-03 02:52:00,
2013-06-02 21:02:00,60.0,37.0,-100.00,SSE,160,-999.0,-999.0,43,-99.99,,,-99.99,,2013-06-03 03:02:00,
2013-06-02 21:12:00,59.0,37.0,-100.00,SSE,160,-999.0,-999.0,44,-99.99,,,-99.99,,2013-06-03 03:12:00,
2013-06-02 21:22:00,59.0,37.0,-100.00,SSE,160,-999.0,-999.0,44,-99.99,,,-99.99,,2013-06-03 03:22:00,
2013-06-02 21:33:00,59.0,37.0,-100.00,SSE,160,-999.0,-999.0,44,-99.99,,,-99.99,,2013-06-03 03:33:00,
2013-06-02 21:43:00,60.0,36.0,-100.00,SSE,160,-999.0,-999.0,42,-99.99,,,-99.99,,2013-06-03 03:43:00,
2013-06-02 21:53:00,59.0,37.0,-100.00,SSE,160,-999.0,2.0,43,-99.99,,,-99.99,,2013-06-03 03:53:00,
2013-06-02 22:03:00,59.0,37.0,-100.00,SSE,160,-999.0,2.0,43,-99.99,,,-99.99,,2013-06-03 04:03:00,
2013-06-02 22:13:00,60.0,37.0,-100.00,SSE,160,-999.0,4.0,43,-99.99,,,-99.99,,2013-06-03 04:13:00,
2013-06-02 22:23:00,57.0,40.0,-100.00,WSW,239,0.0,5.0,48,-99.99,,,-99.99,,2013-06-03 04:23:00,
2013-06-02 22:33:00,57.0,40.0,-100.00,WSW,239,0.0,5.0,48,-99.99,,,-99.99,,2013-06-03 04:33:00,
2013-06-02 22:42:00,57.0,37.0,-100.00,WSW,239,0.0,5.0,47,-99.99,,,-99.99,,2013-06-03 04:42:00,
2013-06-02 22:52:00,56.0,36.0,-100.00,WSW,239,0.0,3.0,48,-99.99,,,-99.99,,2013-06-03 04:52:00,
2013-06-02 23:02:00,56.0,36.0,-100.00,WSW,239,0.0,3.0,48,-99.99,,,-99.99,,2013-06-03 05:02:00,
2013-06-02 23:12:00,56.0,37.0,-100.00,WSW,239,0.0,4.0,49,-99.99,,,-99.99,,2013-06-03 05:12:00,
2013-06-02 23:22:00,54.0,37.0,-100.00,WSW,239,0.0,4.0,53,-99.99,,,-99.99,,2013-06-03 05:22:00,
2013-06-02 23:32:00,54.0,37.0,-100.00,WSW,239,0.0,4.0,53,-99.99,,,-99.99,,2013-06-03 05:32:00,
2013-06-02 23:42:00,54.0,34.0,-100.00,WSW,239,0.0,2.0,47,-99.99,,,-99.99,,2013-06-03 05:42:00,
2013-06-02 23:52:00,55.0,29.0,-100.00,WSW,239,0.0,2.0,37,-99.99,,,-99.99,,2013-06-03 05:52:00,